sat.trackr.live / text

‹ back to catalog

STARLINK-36052

NORAD 66605 · 2025-270T

PAYLOAD ACTIVE UNKNOWN

§ Identity

Operator
Country
US
Launch date
2025-11-22
Launch site
AFETR
Launch vehicle
Mass (kg)
RCS (m²)

Purposes: comms

External: N2YO · Heavens-Above · Gunter

§ Orbital elements

Epoch: 2026-09-19T16:30:01.865376Z

Period
94.27 min
Inclination
43.0020°
Eccentricity
0.0001249
Mean motion
15.27582564 rev/d
Perigee alt
482.2 km
Apogee alt
483.9 km
Semi-major
6,861.2 km
B*
7.0511e-5
RAAN
40.7223°
Arg perigee
280.1224°
Mean anomaly
79.9487°
Rev number
4,737

§ Raw data

STARLINK-360521 66605U 25270T   26262.68752159  .00001679  00000+0  70511-4 0  99902 66605  43.0020  40.7223 0001249 280.1224  79.9487 15.27582564 47377

JSON: /api/v1/satellites/66605 · /tle

For live sub-satellite position, see the globe view (requires WebGL).

§ Visibility from observer

Set your observer location to see the next 7 days of passes ≥ 10°. The values pass through the URL so the page stays shareable.

No JS? Fill the form by hand. The geolocation button needs JavaScript.